Flag for Netherlands Weather past 2 weeks in Rotterdam, Netherlands

Now
46 °F

Overcast.


Feels Like: 41 °F
Forecast: 38 / 44 °F
Wind: 13 mph from Northwest

Location: Rotterdam Zestienhoven Airport

Current Time: Jan 26, 2015 at 3:52:58 PM

Latest Report: Jan 26, 2015 at 3:25 PM


Visibility: N/A

Pressure: 30.07 "Hg

Humidity: 76%

Dew point: 39 °F

Location of RotterdamLocation

Historic Weather in Rotterdam — Graph

°F

Rotterdam temperature yesterday

Maximum temperature yesterday: 45 °F (at 1:25 PM)
Minimum temperature yesterday: 32 °F (at 12:25 AM)
Average temperature yesterday: 40 °F

Past Weeks' High & Low Weather Summary

 TemperatureHumidityPressure
High50 °F (Jan 12, 1:25 PM)100% (Jan 12, 11:25 PM)30.42 "Hg (Jan 12, 11:25 PM)
Low23 °F (Jan 23, 7:25 AM)61% (Jan 17, 3:25 PM)29.30 "Hg (Jan 15, 8:25 AM)
Average39 °F86%29.91 "Hg
* Reported Jan 11 2:25 PM — Jan 26 2:55 PM, Rotterdam, Weather by CustomWeather, © 2014

Note: Actual official high and low records may vary slightly from our data, if they occured in-between our weather recording intervals... More about our weather records

Advertising

Rotterdam weather history for previous 24 hours

 ConditionsComfort  
Time TempWeatherWind HumidityBarometerVisibility
2:55 PM
Jan 26
46 °FPartly sunny.15 mph76%30.04 "HgN/A
2:25 PM46 °FMostly cloudy.17 mph87%30.07 "HgN/A
1:55 PM46 °FMostly cloudy.17 mph100%30.07 "HgN/A
1:25 PM48 °FDrizzle. Mostly cloudy.15 mph94%30.07 "Hg2 mi
12:55 PM48 °FDrizzle. More clouds than sun.12 mph94%30.07 "Hg1 mi
12:25 PM46 °FDrizzle. Mostly cloudy.14 mph100%30.07 "Hg3 mi
11:55 AM46 °FDrizzle. Cloudy.12 mph100%30.07 "Hg1 mi
11:25 AM46 °FDrizzle. Mostly cloudy.13 mph100%30.07 "Hg2 mi
10:55 AM46 °FDrizzle. Cloudy.13 mph93%30.07 "Hg1 mi
10:25 AM46 °FDrizzle. Mostly cloudy.12 mph93%30.09 "Hg6 mi
9:55 AM46 °FMostly cloudy.9 mph93%30.09 "Hg6 mi
9:25 AM46 °FLow clouds.12 mph93%30.09 "Hg5 mi
8:55 AM45 °FBroken clouds.13 mph100%30.09 "Hg5 mi
8:25 AM45 °FDrizzle. Mostly cloudy.13 mph93%30.09 "Hg4 mi
7:55 AM45 °FMostly cloudy.12 mph93%30.12 "Hg4 mi
7:25 AM45 °FLight rain. Mostly cloudy.10 mph93%30.12 "Hg3 mi
6:55 AM45 °FPartly cloudy.9 mph93%30.12 "Hg3 mi
6:25 AM45 °FPartly cloudy.10 mph93%30.12 "Hg4 mi
5:55 AM45 °FLight rain. Mostly cloudy.12 mph93%30.15 "Hg4 mi
5:25 AM45 °FFog.12 mph93%30.15 "Hg2 mi
4:55 AM43 °FFog.12 mph100%30.15 "Hg2 mi
4:25 AM43 °FFog.9 mph100%30.18 "Hg2 mi
3:55 AM43 °FFog.9 mph93%30.18 "Hg3 mi
3:25 AM43 °FLow clouds.10 mph93%30.21 "Hg5 mi
2:55 AM43 °FMostly cloudy.10 mph87%30.21 "HgN/A
2:25 AM43 °FOvercast.12 mph87%30.21 "HgN/A
1:55 AM43 °FOvercast.12 mph87%30.21 "HgN/A
1:25 AM43 °FOvercast.13 mph87%30.24 "HgN/A
12:55 AM43 °FPassing clouds.13 mph87%30.24 "HgN/A
12:25 AM43 °FMostly cloudy.12 mph87%30.27 "HgN/A
11:55 PM
Jan 25
43 °FClear.9 mph87%30.27 "HgN/A
11:25 PM41 °FPassing clouds.9 mph93%30.27 "HgN/A
10:55 PM43 °FClear.13 mph87%30.27 "HgN/A
10:25 PM43 °FMostly cloudy.12 mph87%30.30 "HgN/A
9:55 PM43 °FOvercast.10 mph87%30.30 "HgN/A
9:25 PM43 °FOvercast.10 mph87%30.30 "HgN/A
8:55 PM43 °FMostly cloudy.9 mph87%30.30 "HgN/A
8:25 PM43 °FOvercast.10 mph87%30.33 "HgN/A
7:55 PM43 °FDrizzle. Mostly cloudy.10 mph87%30.33 "HgN/A
7:25 PM43 °FDrizzle. Mostly cloudy.12 mph87%30.33 "HgN/A
6:55 PM43 °FOvercast.10 mph87%30.33 "HgN/A
6:25 PM43 °FPassing clouds.10 mph87%30.33 "HgN/A
5:55 PM43 °FPassing clouds.9 mph87%30.33 "HgN/A
5:25 PM43 °FLight rain. Passing clouds.8 mph87%30.33 "HgN/A
4:55 PM43 °FLight rain. Broken clouds.8 mph87%30.33 "HgN/A
4:25 PM43 °FPartly sunny.9 mph87%30.33 "HgN/A
3:55 PM45 °FClear.9 mph81%30.36 "HgN/A
3:25 PM45 °FScattered clouds.9 mph76%30.36 "HgN/A
Weather by CustomWeather, © 2014

See weather overviewHow to use our weather pages